Regional Weather Roundup
Issued by NWS Bismarck, ND

Home | Current Version | Previous Version | Text Only | Print | Product List | Glossary On
Versions: 1 2 3 4 5 6 7 8 9 10 11 12 13 14 15 16 17 18 19 20 21 22 23 24 25 26 27 28 29 30 31 32 33 34 35 36 37 38 39 40 41 42 43 44 45 46 47 48 49 50
000
ASUS43 KBIS 260110
RWRBIS

NWR BROADCAST TEXT
NATIONAL WEATHER SERVICE BISMARCK ND
800 PM CDT MON JUL 25 2016

NOTE: "FAIR" INDICATES FEW OR NO CLOUDS BELOW 12,000 FEET WITH NO
SIGNIFICANT WEATHER AND/OR OBSTRUCTIONS TO VISIBILITY.


CITY           SKY/WX    TMP DP  RH WIND       PRES   REMARKS
WILLISTON      SUNNY     89  53  29 NE9       29.97S
MINOT          SUNNY     85  67  54 N8        29.95R
MINOT AFB      SUNNY     83  65  53 NE7       29.95R
BISMARCK       SUNNY     92  61  35 CALM      29.90F HX  92
DICKINSON      SUNNY     86  52  30 NE9       29.94S
GARRISON         N/A     85  69  58 N7        29.94S
HETTINGER ARPT MOSUNNY   95  51  22 NE10      29.94F HX  92
JAMESTOWN      SUNNY     84  70  62 S6        29.90F
BEACH          FAIR      82  57  42 N8        30.00S
CARRINGTON     FAIR      84  72  65 NW6       29.94R
HAZEN          FAIR      82  64  54 N9        29.95R
LINTON         FAIR      86  73  66 SE7       29.93S HX  93
MANDAN         FAIR      90  64  43 CALM      29.93S HX  91
OAKES            N/A    N/A N/A N/A MISG        N/A
STANLEY        FAIR      81  64  57 NE10      30.02R
WATFORD CITY     N/A    N/A N/A N/A MISG        N/A
$$

CITY           SKY/WX    TMP DP  RH WIND       PRES   REMARKS
GRAND FORKS    MOSUNNY   88  67  49 SE5       29.89S HX  91
GRAND FORKS AF SUNNY     86  69  56 SE6       29.90S
DEVILS LAKE    SUNNY     82  70  66 N10       29.93R
FARGO          PTCLDY    86  61  42 S8        29.91F
CAVALIER       FAIR      82  66  57 E3        29.93S
GRAFTON        FAIR      81  72  74 NE7       29.93S
GWINNER        FAIR      84  66  54 S8        29.93F
LANGDON        FAIR      81  70  69 NE7       29.97S
ROLLA            N/A     77  66  69 E5        29.99S
$$

CITY           SKY/WX    TMP DP  RH WIND       PRES   REMARKS
ABERDEEN       SUNNY     85  62  46 S10       29.94F
MOBRIDGE       SUNNY     95  53  24 S12       29.89S HX  92
BUFFALO          N/A     91  47  21 E9        29.90S
RAPID CITY     CLOUDY    88  55  32 W3        29.98F
GLASGOW        SUNNY     89  54  30 VRB6      29.95S
SIDNEY         SUNNY     87  57  35 NE13      29.96R
WOLF POINT     SUNNY     92  50  23 NE9       29.95S
GLENDIVE       SUNNY     90  50  25 NE12      29.95S
MILES CITY     SUNNY     97  40  14 NE15      29.91F HX  92
BAKER          SUNNY     91  50  24 NE13      29.96F
$$

CITY           SKY/WX    TMP DP  RH WIND       PRES   REMARKS
BILLINGS       MOSUNNY   93  33  12 NE14      29.96S
GREAT FALLS    SUNNY     88  42  20 N10       30.02F
REGINA         MOSUNNY   77  59  53 N12G17    30.02R
$$





USA.gov is the U.S. government's official web portal to all federal, state and local government web resources and services.